Flag for Denmark Weather past 2 weeks in Aarhus, Denmark

Now
68 °F

Mild.


Feels Like: 68 °F
Forecast: 66 / 81 °F
Wind: 6 mph from Southeast

Location: Tirstrup

Current Time: Aug 2, 2014 at 2:37:58 AM

Latest Report: Aug 2, 2014 at 1:50 AM


Visibility: N/A

Pressure: 29.92 "Hg

Humidity: 69%

Dew point: 57 °F

Location of AarhusLocation

Historic Weather in Aarhus — Graph

°F

Aarhus temperature yesterday

Maximum temperature yesterday: 77 °F (at 3:50 PM)
Minimum temperature yesterday: 63 °F (at 4:50 AM)
Average temperature yesterday: 71 °F

Past Weeks' High & Low Weather Summary

 TemperatureHumidityPressure
High84 °F (Jul 25, 4:50 PM)94% (Jul 18, 6:20 AM)30.27 "Hg (Jul 18, 6:20 AM)
Low55 °F (Jul 30, 4:50 AM)26% (Jul 23, 1:20 PM)29.77 "Hg (Jul 30, 1:20 PM)
Average71 °F61%30.02 "Hg
* Reported Jul 18 1:20 AM — Aug 2 1:20 AM, Aarhus, Weather by CustomWeather, © 2014

Note: Actual official high and low records may vary slightly from our data, if they occured in-between our weather recording intervals... More about our weather records

Advertising

Aarhus weather history for previous 24 hours

 ConditionsComfort  
Time TempWeatherWind HumidityBarometerVisibility
1:20 AM
Aug 2
68 °FMild.6 mph69%29.92 "HgN/A
12:50 AM68 °FMild.7 mph69%29.92 "HgN/A
12:20 AM70 °FMild.5 mph64%29.92 "Hg6 mi
11:50 PM
Aug 1
70 °FMild.6 mph60%29.92 "HgN/A
11:20 PM70 °FMild.5 mph57%29.92 "HgN/A
10:50 PM72 °FMild.3 mph53%29.92 "HgN/A
10:20 PM72 °FMild.3 mph50%29.92 "HgN/A
9:50 PM72 °FMild.5 mph50%29.89 "HgN/A
9:20 PM72 °FMild.5 mph47%29.89 "HgN/A
8:50 PM73 °FMild.5 mph44%29.89 "HgN/A
8:20 PM75 °FPassing clouds.7 mph39%29.89 "HgN/A
7:50 PM75 °FMild.7 mph41%29.89 "HgN/A
7:20 PM77 °FPleasantly warm.8 mph36%29.89 "HgN/A
6:50 PM77 °FPleasantly warm.8 mph36%29.89 "HgN/A
6:20 PM77 °FPleasantly warm.12 mph39%29.89 "HgN/A
5:50 PM77 °FPleasantly warm.10 mph39%29.89 "HgN/A
5:20 PM77 °FWarm.9 mph42%29.89 "HgN/A
4:50 PM77 °FWarm.9 mph44%29.89 "HgN/A
4:20 PM77 °FWarm.8 mph42%29.89 "HgN/A
3:50 PM77 °FWarm.8 mph44%29.89 "HgN/A
3:20 PM75 °FPassing clouds.9 mph50%29.92 "HgN/A
2:50 PM75 °FScattered clouds.6 mph47%29.92 "HgN/A
2:20 PM75 °FPassing clouds.9 mph44%29.92 "HgN/A
1:50 PM75 °FMild.9 mph47%29.92 "HgN/A
1:20 PM72 °FScattered clouds.9 mph57%29.92 "HgN/A
12:50 PM73 °FPassing clouds.8 mph61%29.92 "HgN/A
12:20 PM73 °FPassing clouds.9 mph57%29.92 "HgN/A
11:50 AM73 °FScattered clouds.8 mph53%29.89 "HgN/A
11:20 AM73 °FPartly sunny.7 mph53%29.92 "HgN/A
10:50 AM72 °FPartly sunny.7 mph57%29.92 "HgN/A
10:20 AM72 °FPartly sunny.8 mph57%29.92 "HgN/A
9:50 AM70 °FPassing clouds.7 mph60%29.92 "HgN/A
9:20 AM70 °FPassing clouds.8 mph64%29.92 "HgN/A
8:50 AM70 °FPassing clouds.7 mph64%29.89 "HgN/A
8:20 AM68 °FScattered clouds.5 mph73%29.89 "HgN/A
7:50 AM66 °FPassing clouds.3 mph78%29.89 "HgN/A
7:20 AM64 °FMild.3 mph83%29.89 "HgN/A
6:50 AM64 °FPassing clouds.3 mph83%29.89 "HgN/A
6:20 AM64 °FPartly sunny.2 mph83%29.89 "Hg6 mi
5:50 AM64 °FPassing clouds.3 mph83%29.89 "Hg5 mi
5:20 AM63 °FPassing clouds.2 mph83%29.89 "Hg6 mi
4:50 AM63 °FPassing clouds.3 mph83%29.89 "Hg6 mi
4:20 AM64 °FPassing clouds.6 mph83%29.89 "Hg6 mi
3:50 AM64 °FPassing clouds.6 mph83%29.89 "HgN/A
3:20 AM64 °FPassing clouds.6 mph83%29.89 "HgN/A
2:50 AM64 °FPassing clouds.7 mph83%29.89 "HgN/A
2:20 AM66 °FPassing clouds.7 mph73%29.89 "HgN/A
Weather by CustomWeather, © 2014

See weather overviewHow to use our weather pages